User: anonymous   Login
Location: Wayah Bald
(35.1806°N, 83.5603°W)
Time: 07:20:34
(UTC-05:00)
Language:

Meteor 1-27 Rocket - Orbit

View from above orbital plane
View from above orbital plane
View from above satellite
View from above satellite

Ground track
Ground track

The orbit data is extracted from the following two-line orbital elements,

1 09904U 77024B   17056.52120426  .00000096  00000-0  49698-4 0  9998
2 09904  81.2590 237.7351 0054779 283.2229  76.2833 14.06836327 47096
Epoch (UTC): 25 February 2017 12:30:32
Eccentricity: 0.0054779
inclination: 81.2590°
perigee height: 830 km
apogee height: 910 km
right ascension of ascending node: 237.7351°
argument of perigee: 283.2229°
revolutions per day: 14.06836327
mean anomaly at epoch: 76.2833°
orbit number at epoch: 4709

The dashed part of the orbit path shows where the satellite is in the earth's shadow,  

DLR